sat.trackr.live / text

‹ back to catalog

O3B MPOWER F3

NORAD 56368 · 2023-059B

PAYLOAD ACTIVE UNKNOWN

§ Identity

Operator
Country
O3B
Launch date
2023-04-28
Launch site
AFETR
Launch vehicle
Mass (kg)
RCS (m²)

Purposes: comms

External: N2YO · Heavens-Above · Gunter

§ Orbital elements

Epoch: 2026-09-19T08:32:42.212832Z

Period
287.93 min
Inclination
0.0600°
Eccentricity
0.0006404
Mean motion
5.00115558 rev/d
Perigee alt
8,056.6 km
Apogee alt
8,075.1 km
Semi-major
14,444.0 km
B*
0.0000e+0
RAAN
341.5465°
Arg perigee
190.2261°
Mean anomaly
188.2401°
Rev number
5,944

§ Raw data

O3B MPOWER F31 56368U 23059B   26262.35604413 -.00000027  00000+0  00000+0 0  99992 56368   0.0600 341.5465 0006404 190.2261 188.2401  5.00115558 59445

JSON: /api/v1/satellites/56368 · /tle

For live sub-satellite position, see the globe view (requires WebGL).

§ Visibility from observer

Set your observer location to see the next 7 days of passes ≥ 10°. The values pass through the URL so the page stays shareable.

No JS? Fill the form by hand. The geolocation button needs JavaScript.